Hourly Data Report for October 01, 2016

All times are specified in Local Standard Time (LST). Add 1 hour to adjust for Daylight Saving Time where and when it is observed.

QIKIQTARJUAQ A
NUNAVUT

67°32'48.000" N
64°01'54.000" W
5.50 m
2400577
YVM

Download Data

Hourly Data (October 2016)
Hourly Data Report for October 1, 2016
Temp Definition
°C
Dew Point Temp Definition
°C
Rel Hum Definition
%
Wind Dir Definition
10's deg

Wind Spd Definition
km/h
Visibility Definition
km
Stn Press Definition
kPa
Hmdx Definition


Wind Chill Definition


Weather Definition


TIME
00:00 Legend Double Dagger 2.3 0.7 89 1 15 16.1 100.73     LegendNANA
01:00 Legend Double Dagger 2.4 0.4 87 2 13 16.1 100.76     LegendNANA
02:00 Legend Double Dagger 2.8 0.2 83 36 18 16.1 100.81     LegendNANA
03:00 Legend Double Dagger 2.5 0.5 87 36 26 16.1 100.88     LegendNANA
04:00 Legend Double Dagger 1.9 1.2 95 36 34 8.1 100.93     Rain,Fog
05:00 Legend Double Dagger 1.8 0.6 92 36 37 8.1 101.02     Rain,Fog
06:00 Legend Double Dagger 2.0 -0.6 83 36 26 16.1 101.07     LegendNANA
07:00 Legend Double Dagger 1.3 0.2 92 1 22 16.1 101.09     LegendNANA
08:00 Legend Double Dagger 1.7 -0.4 86 1 22 16.1 101.08     LegendNANA
09:00 Legend Double Dagger 1.7 -0.7 84 2 13 16.1 101.06     LegendNANA
10:00 Legend Double Dagger 1.4 0.3 92 4 17 16.1 101.05     LegendNANA
11:00 Legend Double Dagger 1.4 0.2 91 4 13 16.1 101.03     LegendNANA
12:00 Legend Double Dagger 1.5 -0.1 89 3 11 16.1 101.04     LegendNANA
13:00 Legend Double Dagger 1.5 0.0 90 36 8 16.1 101.05     LegendNANA
14:00 Legend Double Dagger 1.4 0.2 92 35 5 16.1 101.04     LegendNANA
15:00 Legend Double Dagger 1.2 -0.1 91 4 11 16.1 101.05     LegendNANA
16:00 Legend Double Dagger 1.0 0.0 93 1 9 8.1 101.05     Rain,Fog
17:00 Legend Double Dagger 1.0 0.1 94 1 13 12.9 101.05     Rain
18:00 Legend Double Dagger 0.4 0.3 99 4 9 2.4 101.07     Snow
19:00 Legend Double Dagger 0.6 -0.3 94 2 13 12.9 101.05     Rain
20:00 Legend Double Dagger 0.3 -0.6 94 2 15 16.1 101.02     Freezing Rain
21:00 Legend Double Dagger 0.4 -1.2 89 2 11 16.1 100.99     LegendNANA
22:00 Legend Double Dagger 0.7 -1.9 83 1 15 16.1 100.98     LegendNANA
23:00 Legend Double Dagger 0.6 -2.0 83 35 18 16.1 100.94     LegendNANA

Notes on Data Quality.

Legend

  • E = Estimated
  • M = Missing
  • NA = Not Available
  • ‡ = Partner data that is not subject to review by the National Climate Archives
Date modified: